Time,TemperatureF,DewpointF,PressureIn,WindDirection,WindDirectionDegrees,WindSpeedMPH,WindSpeedGustMPH,Humidity,HourlyPrecipIn,Conditions,Clouds,dailyrainin,SoftwareType,DateUTC
2013-07-08 00:03:00,59.5,39.9,30.05,ESE,114,0.0,0.0,48,0.00,,,0.00,meteohub,2013-07-08 07:03:00,
2013-07-08 00:08:00,59.5,40.3,30.05,SE,142,0.0,0.0,49,0.00,,,0.00,meteohub,2013-07-08 07:08:00,
2013-07-08 00:13:00,59.2,40.1,30.06,ESE,112,0.0,0.0,49,0.00,,,0.00,meteohub,2013-07-08 07:13:00,
2013-07-08 00:18:00,59.0,39.4,30.06,SE,128,0.0,0.0,48,0.00,,,0.00,meteohub,2013-07-08 07:18:00,
2013-07-08 00:23:00,58.6,39.0,30.06,SE,128,0.0,0.0,48,0.00,,,0.00,meteohub,2013-07-08 07:23:00,
2013-07-08 00:28:00,58.5,38.3,30.06,SSE,150,0.0,0.0,47,0.00,,,0.00,meteohub,2013-07-08 07:28:00,
2013-07-08 00:34:00,58.3,38.1,30.06,SSE,165,0.0,0.0,47,0.00,,,0.00,meteohub,2013-07-08 07:34:00,
2013-07-08 00:39:00,58.1,37.9,30.06,SSE,159,0.0,1.0,47,0.00,,,0.00,meteohub,2013-07-08 07:39:00,
2013-07-08 00:44:00,57.9,38.3,30.05,SSE,148,1.0,1.0,48,0.00,,,0.00,meteohub,2013-07-08 07:44:00,
2013-07-08 00:49:00,57.7,38.7,30.05,SSE,167,0.0,1.0,49,0.00,,,0.00,meteohub,2013-07-08 07:49:00,
2013-07-08 00:54:00,57.6,38.5,30.06,SSE,157,0.0,2.0,49,0.00,,,0.00,meteohub,2013-07-08 07:54:00,
2013-07-08 00:59:00,57.4,38.3,30.06,SSE,153,0.0,2.0,49,0.00,,,0.00,meteohub,2013-07-08 07:59:00,
2013-07-08 01:04:00,57.0,38.1,30.06,SSE,157,0.0,1.0,49,0.00,,,0.00,meteohub,2013-07-08 08:04:00,
2013-07-08 01:09:00,56.8,38.5,30.06,SSE,155,1.0,2.0,50,0.00,,,0.00,meteohub,2013-07-08 08:09:00,
2013-07-08 01:14:00,56.5,38.7,30.06,SSE,148,1.0,2.0,51,0.00,,,0.00,meteohub,2013-07-08 08:14:00,
2013-07-08 01:19:00,56.3,38.5,30.06,SSE,152,1.0,1.0,51,0.00,,,0.00,meteohub,2013-07-08 08:19:00,
2013-07-08 01:24:00,56.1,37.8,30.06,SSE,157,1.0,2.0,50,0.00,,,0.00,meteohub,2013-07-08 08:24:00,
2013-07-08 01:29:00,55.9,38.1,30.06,SSE,152,0.0,2.0,51,0.00,,,0.00,meteohub,2013-07-08 08:29:00,
2013-07-08 01:34:00,55.8,37.9,30.06,SSE,163,1.0,2.0,51,0.00,,,0.00,meteohub,2013-07-08 08:34:00,
2013-07-08 01:39:00,55.6,38.3,30.06,ESE,109,1.0,2.0,52,0.00,,,0.00,meteohub,2013-07-08 08:39:00,
2013-07-08 01:44:00,55.4,38.1,30.06,SSE,159,1.0,2.0,52,0.00,,,0.00,meteohub,2013-07-08 08:44:00,
2013-07-08 01:49:00,55.2,37.9,30.06,SSE,153,0.0,2.0,52,0.00,,,0.00,meteohub,2013-07-08 08:49:00,
2013-07-08 01:54:00,54.9,37.6,30.06,SSE,153,0.0,2.0,52,0.00,,,0.00,meteohub,2013-07-08 08:54:00,
2013-07-08 01:59:00,54.7,37.4,30.06,SE,140,0.0,2.0,52,0.00,,,0.00,meteohub,2013-07-08 08:59:00,
2013-07-08 02:04:00,54.5,37.2,30.06,SSE,161,0.0,1.0,52,0.00,,,0.00,meteohub,2013-07-08 09:04:00,
2013-07-08 02:10:00,54.3,37.0,30.06,SSE,163,0.0,2.0,52,0.00,,,0.00,meteohub,2013-07-08 09:10:00,
2013-07-08 02:15:00,54.1,36.9,30.06,SSE,166,0.0,2.0,52,0.00,,,0.00,meteohub,2013-07-08 09:15:00,
2013-07-08 02:20:00,54.1,37.4,30.06,SSE,156,0.0,2.0,53,0.00,,,0.00,meteohub,2013-07-08 09:20:00,
2013-07-08 02:25:00,54.0,37.2,30.06,SE,141,0.0,2.0,53,0.00,,,0.00,meteohub,2013-07-08 09:25:00,
2013-07-08 02:30:00,53.8,37.6,30.06,SSE,149,1.0,2.0,54,0.00,,,0.00,meteohub,2013-07-08 09:30:00,
2013-07-08 02:35:00,53.6,37.4,30.06,SSE,161,0.0,2.0,54,0.00,,,0.00,meteohub,2013-07-08 09:35:00,
2013-07-08 02:40:00,53.4,37.2,30.06,SSE,155,0.0,2.0,54,0.00,,,0.00,meteohub,2013-07-08 09:40:00,
2013-07-08 02:45:00,53.2,37.0,30.06,SSE,153,2.0,2.0,54,0.00,,,0.00,meteohub,2013-07-08 09:45:00,
2013-07-08 02:50:00,53.1,36.9,30.06,SSE,148,1.0,2.0,54,0.00,,,0.00,meteohub,2013-07-08 09:50:00,
2013-07-08 02:55:00,52.9,36.7,30.06,SSE,150,2.0,2.0,54,0.00,,,0.00,meteohub,2013-07-08 09:55:00,
2013-07-08 03:00:00,52.7,36.5,30.06,SSE,159,1.0,2.0,54,0.00,,,0.00,meteohub,2013-07-08 10:00:00,
2013-07-08 03:05:00,52.5,36.3,30.06,South,191,0.0,2.0,54,0.00,,,0.00,meteohub,2013-07-08 10:05:00,
2013-07-08 03:10:00,52.5,36.3,30.06,SSE,148,1.0,2.0,54,0.00,,,0.00,meteohub,2013-07-08 10:10:00,
2013-07-08 03:15:00,52.5,35.4,30.06,SSE,159,0.0,3.0,52,0.00,,,0.00,meteohub,2013-07-08 10:15:00,
2013-07-08 03:20:00,52.5,36.0,30.06,SSE,149,1.0,4.0,53,0.00,,,0.00,meteohub,2013-07-08 10:20:00,
2013-07-08 03:25:00,52.5,34.9,30.06,South,171,1.0,4.0,51,0.00,,,0.00,meteohub,2013-07-08 10:25:00,
2013-07-08 03:30:00,52.3,35.2,30.06,SSE,154,1.0,3.0,52,0.00,,,0.00,meteohub,2013-07-08 10:30:00,
2013-07-08 03:35:00,52.5,35.4,30.06,South,178,1.0,3.0,52,0.00,,,0.00,meteohub,2013-07-08 10:35:00,
2013-07-08 03:40:00,52.5,34.9,30.07,SSE,153,2.0,3.0,51,0.00,,,0.00,meteohub,2013-07-08 10:40:00,
2013-07-08 03:45:00,52.5,34.9,30.07,SSE,153,1.0,2.0,51,0.00,,,0.00,meteohub,2013-07-08 10:45:00,
2013-07-08 03:50:00,52.7,35.1,30.07,SSE,160,2.0,2.0,51,0.00,,,0.00,meteohub,2013-07-08 10:50:00,
2013-07-08 03:55:00,52.7,35.1,30.07,SSE,148,1.0,2.0,51,0.00,,,0.00,meteohub,2013-07-08 10:55:00,
2013-07-08 04:00:00,52.5,34.9,30.07,SSE,153,1.0,2.0,51,0.00,,,0.00,meteohub,2013-07-08 11:00:00,
2013-07-08 04:05:00,52.3,33.8,30.08,SSE,166,0.0,3.0,49,0.00,,,0.00,meteohub,2013-07-08 11:05:00,
2013-07-08 04:11:00,52.2,33.6,30.08,SSE,166,0.0,3.0,49,0.00,,,0.00,meteohub,2013-07-08 11:11:00,
2013-07-08 04:16:00,52.0,34.0,30.08,SSE,148,0.0,3.0,50,0.00,,,0.00,meteohub,2013-07-08 11:16:00,
2013-07-08 04:21:00,52.2,34.2,30.08,SSW,192,0.0,2.0,50,0.00,,,0.00,meteohub,2013-07-08 11:21:00,
2013-07-08 04:26:00,52.0,34.3,30.08,SSE,163,0.0,3.0,51,0.00,,,0.00,meteohub,2013-07-08 11:26:00,
2013-07-08 04:31:00,51.8,34.7,30.08,SSE,166,0.0,3.0,52,0.00,,,0.00,meteohub,2013-07-08 11:31:00,
2013-07-08 04:36:00,51.6,34.5,30.08,SE,142,0.0,3.0,52,0.00,,,0.00,meteohub,2013-07-08 11:36:00,
2013-07-08 04:41:00,51.6,34.5,30.08,South,176,0.0,2.0,52,0.00,,,0.00,meteohub,2013-07-08 11:41:00,
2013-07-08 04:46:00,51.6,34.5,30.08,SSE,148,2.0,2.0,52,0.00,,,0.00,meteohub,2013-07-08 11:46:00,
2013-07-08 04:51:00,51.4,34.9,30.08,SSE,160,1.0,3.0,53,0.00,,,0.00,meteohub,2013-07-08 11:51:00,
2013-07-08 04:56:00,51.3,34.7,30.09,SSE,149,1.0,3.0,53,0.00,,,0.00,meteohub,2013-07-08 11:56:00,
2013-07-08 05:01:00,51.1,34.5,30.09,SSE,153,1.0,4.0,53,0.00,,,0.00,meteohub,2013-07-08 12:01:00,
2013-07-08 05:06:00,50.7,34.2,30.09,SSE,154,1.0,4.0,53,0.00,,,0.00,meteohub,2013-07-08 12:06:00,
2013-07-08 05:11:00,50.7,34.2,30.09,South,178,1.0,4.0,53,0.00,,,0.00,meteohub,2013-07-08 12:11:00,
2013-07-08 05:16:00,50.5,34.0,30.09,South,169,1.0,2.0,53,0.00,,,0.00,meteohub,2013-07-08 12:16:00,
2013-07-08 05:21:00,50.4,33.8,30.09,SSE,153,2.0,3.0,53,0.00,,,0.00,meteohub,2013-07-08 12:21:00,
2013-07-08 05:26:00,50.5,35.1,30.09,SE,126,1.0,3.0,55,0.00,,,0.00,meteohub,2013-07-08 12:26:00,
2013-07-08 05:31:00,51.3,36.5,30.09,SE,140,0.0,2.0,57,0.00,,,0.00,meteohub,2013-07-08 12:31:00,
2013-07-08 05:36:00,51.1,35.4,30.09,SSE,161,1.0,3.0,55,0.00,,,0.00,meteohub,2013-07-08 12:36:00,
2013-07-08 05:41:00,50.7,36.0,30.09,SSE,153,1.0,3.0,57,0.00,,,0.00,meteohub,2013-07-08 12:41:00,
2013-07-08 05:47:00,50.5,35.1,30.09,South,169,1.0,2.0,55,0.00,,,0.00,meteohub,2013-07-08 12:47:00,
2013-07-08 05:52:00,50.5,36.3,30.09,SSW,194,2.0,2.0,58,0.00,,,0.00,meteohub,2013-07-08 12:52:00,
2013-07-08 05:57:00,50.5,36.3,30.10,SSW,193,0.0,2.0,58,0.00,,,0.00,meteohub,2013-07-08 12:57:00,
2013-07-08 06:02:00,50.5,36.3,30.10,SSE,163,1.0,2.0,58,0.00,,,0.00,meteohub,2013-07-08 13:02:00,
2013-07-08 06:07:00,50.5,36.3,30.10,SSE,156,2.0,2.0,58,0.00,,,0.00,meteohub,2013-07-08 13:07:00,
2013-07-08 06:12:00,51.4,36.7,30.10,SSE,163,1.0,2.0,57,0.00,,,0.00,meteohub,2013-07-08 13:12:00,
2013-07-08 06:17:00,52.2,37.8,30.10,SSE,160,1.0,2.0,58,0.00,,,0.00,meteohub,2013-07-08 13:17:00,
2013-07-08 06:22:00,53.2,37.0,30.10,SSE,149,1.0,2.0,54,0.00,,,0.00,meteohub,2013-07-08 13:22:00,
2013-07-08 06:27:00,54.0,37.2,30.10,SSE,149,1.0,2.0,53,0.00,,,0.00,meteohub,2013-07-08 13:27:00,
2013-07-08 06:32:00,54.1,36.9,30.10,SSE,150,2.0,2.0,52,0.00,,,0.00,meteohub,2013-07-08 13:32:00,
2013-07-08 06:37:00,54.0,37.8,30.10,SSE,161,0.0,3.0,54,0.00,,,0.00,meteohub,2013-07-08 13:37:00,
2013-07-08 06:42:00,54.0,36.7,30.10,SSE,153,3.0,3.0,52,0.00,,,0.00,meteohub,2013-07-08 13:42:00,
2013-07-08 06:47:00,54.0,37.2,30.10,South,180,1.0,3.0,53,0.00,,,0.00,meteohub,2013-07-08 13:47:00,
2013-07-08 06:52:00,54.0,37.2,30.10,SE,144,1.0,3.0,53,0.00,,,0.00,meteohub,2013-07-08 13:52:00,
2013-07-08 06:57:00,54.0,37.2,30.10,SSE,161,0.0,3.0,53,0.00,,,0.00,meteohub,2013-07-08 13:57:00,
2013-07-08 07:02:00,54.7,38.3,30.10,SSE,167,0.0,3.0,54,0.00,,,0.00,meteohub,2013-07-08 14:02:00,
2013-07-08 07:07:00,55.2,38.3,30.11,SSE,162,0.0,2.0,53,0.00,,,0.00,meteohub,2013-07-08 14:07:00,
2013-07-08 07:12:00,56.3,38.8,30.11,SSE,153,2.0,2.0,52,0.00,,,0.00,meteohub,2013-07-08 14:12:00,
2013-07-08 07:17:00,57.2,39.7,30.11,SSE,153,1.0,2.0,52,0.00,,,0.00,meteohub,2013-07-08 14:17:00,
2013-07-08 07:22:00,58.1,41.5,30.11,SE,140,1.0,2.0,54,0.00,,,0.00,meteohub,2013-07-08 14:22:00,
2013-07-08 07:27:00,59.0,40.8,30.11,South,169,0.0,2.0,51,0.00,,,0.00,meteohub,2013-07-08 14:27:00,
2013-07-08 07:32:00,59.4,41.7,30.11,ESE,123,0.0,2.0,52,0.00,,,0.00,meteohub,2013-07-08 14:32:00,
2013-07-08 07:37:00,60.3,43.5,30.11,ESE,123,0.0,2.0,54,0.00,,,0.00,meteohub,2013-07-08 14:37:00,
2013-07-08 07:42:00,60.8,43.5,30.11,ESE,123,0.0,0.0,53,0.00,,,0.00,meteohub,2013-07-08 14:42:00,
2013-07-08 07:47:00,61.3,44.6,30.12,SE,124,0.0,0.0,54,0.00,,,0.00,meteohub,2013-07-08 14:47:00,
2013-07-08 07:52:00,61.2,46.8,30.11,NNW,333,1.0,1.0,59,0.00,,,0.00,meteohub,2013-07-08 14:52:00,
2013-07-08 07:57:00,60.8,47.3,30.11,NNW,333,1.0,1.0,61,0.00,,,0.00,meteohub,2013-07-08 14:57:00,
2013-07-08 08:02:00,60.4,47.3,30.11,NW,321,1.0,1.0,62,0.00,,,0.00,meteohub,2013-07-08 15:02:00,
2013-07-08 08:07:00,60.6,48.0,30.11,NW,322,0.0,2.0,63,0.00,,,0.00,meteohub,2013-07-08 15:07:00,
2013-07-08 08:12:00,61.3,47.8,30.11,NW,322,0.0,2.0,61,0.00,,,0.00,meteohub,2013-07-08 15:12:00,
2013-07-08 08:17:00,62.8,48.7,30.11,NW,321,0.0,2.0,60,0.00,,,0.00,meteohub,2013-07-08 15:17:00,
2013-07-08 08:22:00,63.9,49.3,30.11,NW,326,0.0,1.0,59,0.00,,,0.00,meteohub,2013-07-08 15:22:00,
2013-07-08 08:27:00,64.6,48.9,30.11,NW,326,1.0,1.0,57,0.00,,,0.00,meteohub,2013-07-08 15:27:00,
2013-07-08 08:32:00,64.2,49.1,30.11,NE,34,2.0,2.0,58,0.00,,,0.00,meteohub,2013-07-08 15:32:00,
2013-07-08 08:37:00,63.7,49.5,30.11,NE,35,2.0,2.0,60,0.00,,,0.00,meteohub,2013-07-08 15:37:00,
2013-07-08 08:42:00,63.3,49.6,30.11,NNW,344,1.0,2.0,61,0.00,,,0.00,meteohub,2013-07-08 15:42:00,
2013-07-08 08:47:00,63.1,49.8,30.11,NNW,342,0.0,2.0,62,0.00,,,0.00,meteohub,2013-07-08 15:47:00,
2013-07-08 08:52:00,63.1,50.4,30.12,NNE,24,1.0,2.0,63,0.00,,,0.00,meteohub,2013-07-08 15:52:00,
2013-07-08 08:57:00,63.1,50.4,30.11,NNW,338,2.0,2.0,63,0.00,,,0.00,meteohub,2013-07-08 15:57:00,
2013-07-08 09:02:00,62.8,51.3,30.11,NNE,19,3.0,3.0,66,0.00,,,0.00,meteohub,2013-07-08 16:02:00,
2013-07-08 09:07:00,62.6,52.3,30.11,NNE,20,3.0,3.0,69,0.00,,,0.00,meteohub,2013-07-08 16:07:00,
2013-07-08 09:12:00,62.8,53.2,30.11,NW,322,3.0,3.0,71,0.00,,,0.00,meteohub,2013-07-08 16:12:00,
2013-07-08 09:17:00,63.1,54.7,30.11,NW,317,2.0,3.0,74,0.00,,,0.00,meteohub,2013-07-08 16:17:00,
2013-07-08 09:22:00,63.3,54.5,30.11,NW,322,0.0,3.0,73,0.00,,,0.00,meteohub,2013-07-08 16:22:00,
2013-07-08 09:27:00,63.5,53.6,30.11,NNW,327,4.0,5.0,70,0.00,,,0.00,meteohub,2013-07-08 16:27:00,
2013-07-08 09:32:00,63.5,54.3,30.11,NNW,333,5.0,7.0,72,0.00,,,0.00,meteohub,2013-07-08 16:32:00,
2013-07-08 09:37:00,63.9,52.7,30.11,NNW,338,7.0,7.0,67,0.00,,,0.00,meteohub,2013-07-08 16:37:00,
2013-07-08 09:42:00,64.4,52.3,30.11,NNW,333,4.0,8.0,65,0.00,,,0.00,meteohub,2013-07-08 16:42:00,
2013-07-08 09:47:00,64.8,50.5,30.11,NNE,26,2.0,10.0,60,0.00,,,0.00,meteohub,2013-07-08 16:47:00,
2013-07-08 09:52:00,65.8,47.1,30.11,NNW,337,4.0,10.0,51,0.00,,,0.00,meteohub,2013-07-08 16:52:00,
2013-07-08 09:57:00,67.3,48.6,30.10,NE,38,8.0,9.0,51,0.00,,,0.00,meteohub,2013-07-08 16:57:00,
2013-07-08 10:02:00,68.5,46.9,30.11,NW,317,3.0,9.0,46,0.00,,,0.00,meteohub,2013-07-08 17:02:00,
2013-07-08 10:07:00,69.4,39.9,30.11,NNE,29,0.0,8.0,34,0.00,,,0.00,meteohub,2013-07-08 17:07:00,
2013-07-08 10:13:00,72.0,32.2,30.10,SSW,200,3.0,8.0,23,0.00,,,0.00,meteohub,2013-07-08 17:13:00,
2013-07-08 10:18:00,74.5,32.0,30.11,SSW,203,3.0,5.0,21,0.00,,,0.00,meteohub,2013-07-08 17:18:00,
2013-07-08 10:23:00,75.9,32.0,30.11,SSW,206,1.0,8.0,20,0.00,,,0.00,meteohub,2013-07-08 17:23:00,
2013-07-08 10:28:00,76.8,32.7,30.11,SSE,155,2.0,8.0,20,0.00,,,0.00,meteohub,2013-07-08 17:28:00,
2013-07-08 10:33:00,77.2,30.4,30.11,SE,138,0.0,6.0,18,0.00,,,0.00,meteohub,2013-07-08 17:33:00,
2013-07-08 10:38:00,78.1,34.9,30.11,NNE,12,5.0,8.0,21,0.00,,,0.00,meteohub,2013-07-08 17:38:00,
2013-07-08 10:44:00,77.5,30.7,30.11,West,281,2.0,8.0,18,0.00,,,0.00,meteohub,2013-07-08 17:44:00,
2013-07-08 10:49:00,77.7,33.4,30.12,SSW,205,1.0,8.0,20,0.00,,,0.00,meteohub,2013-07-08 17:49:00,
2013-07-08 10:54:00,78.4,32.7,30.12,SSE,154,2.0,8.0,19,0.00,,,0.00,meteohub,2013-07-08 17:54:00,
2013-07-08 11:00:00,79.0,30.4,30.12,SSW,205,0.0,8.0,17,0.00,,,0.00,meteohub,2013-07-08 18:00:00,
2013-07-08 11:05:00,79.3,30.7,30.12,WSW,238,1.0,7.0,17,0.00,,,0.00,meteohub,2013-07-08 18:05:00,
2013-07-08 11:10:00,79.3,33.4,30.12,SSW,194,0.0,9.0,19,0.00,,,0.00,meteohub,2013-07-08 18:10:00,
2013-07-08 11:16:00,79.5,30.9,30.12,SE,140,0.0,9.0,17,0.00,,,0.00,meteohub,2013-07-08 18:16:00,
2013-07-08 11:21:00,79.7,29.5,30.12,ENE,70,1.0,9.0,16,0.00,,,0.00,meteohub,2013-07-08 18:21:00,
2013-07-08 11:27:00,79.9,31.1,30.12,ESE,106,3.0,8.0,17,0.00,,,0.00,meteohub,2013-07-08 18:27:00,
2013-07-08 11:32:00,80.1,29.8,30.12,SW,216,4.0,8.0,16,0.00,,,0.00,meteohub,2013-07-08 18:32:00,
2013-07-08 11:37:00,79.3,30.7,30.12,SW,225,3.0,6.0,17,0.00,,,0.00,meteohub,2013-07-08 18:37:00,
2013-07-08 11:42:00,79.5,32.4,30.12,WNW,295,1.0,10.0,18,0.00,,,0.00,meteohub,2013-07-08 18:42:00,
2013-07-08 11:47:00,79.5,29.5,30.12,ENE,67,3.0,10.0,16,0.00,,,0.00,meteohub,2013-07-08 18:47:00,
2013-07-08 11:52:00,80.1,31.3,30.12,SE,126,1.0,7.0,17,0.00,,,0.00,meteohub,2013-07-08 18:52:00,
2013-07-08 11:57:00,80.4,31.6,30.12,ESE,115,5.0,7.0,17,0.00,,,0.00,meteohub,2013-07-08 18:57:00,
2013-07-08 12:02:00,80.4,28.6,30.12,NW,313,2.0,6.0,15,0.00,,,0.00,meteohub,2013-07-08 19:02:00,
2013-07-08 12:08:00,81.0,27.3,30.12,ESE,106,2.0,6.0,14,0.00,,,0.00,meteohub,2013-07-08 19:08:00,
2013-07-08 12:13:00,81.0,32.0,30.12,East,80,1.0,7.0,17,0.00,,,0.00,meteohub,2013-07-08 19:13:00,
2013-07-08 12:18:00,81.1,32.2,30.12,West,279,1.0,9.0,17,0.00,,,0.00,meteohub,2013-07-08 19:18:00,
2013-07-08 12:23:00,81.5,29.5,30.12,SSE,156,1.0,10.0,15,0.00,,,0.00,meteohub,2013-07-08 19:23:00,
2013-07-08 12:29:00,81.3,27.5,30.12,ESE,121,2.0,10.0,14,0.00,,,0.00,meteohub,2013-07-08 19:29:00,
2013-07-08 12:34:00,81.1,29.1,30.12,South,190,4.0,6.0,15,0.00,,,0.00,meteohub,2013-07-08 19:34:00,
2013-07-08 12:40:00,81.0,30.6,30.12,NNE,15,2.0,9.0,16,0.00,,,0.00,meteohub,2013-07-08 19:40:00,
2013-07-08 12:45:00,81.0,28.9,30.12,SSW,206,2.0,9.0,15,0.00,,,0.00,meteohub,2013-07-08 19:45:00,
2013-07-08 12:50:00,81.0,28.9,30.12,SSE,163,1.0,6.0,15,0.00,,,0.00,meteohub,2013-07-08 19:50:00,
2013-07-08 12:55:00,81.3,29.3,30.12,West,280,1.0,7.0,15,0.00,,,0.00,meteohub,2013-07-08 19:55:00,
2013-07-08 13:01:00,81.3,29.3,30.12,SW,229,3.0,7.0,15,0.00,,,0.00,meteohub,2013-07-08 20:01:00,
2013-07-08 13:06:00,81.3,32.4,30.12,West,281,2.0,7.0,17,0.00,,,0.00,meteohub,2013-07-08 20:06:00,
2013-07-08 13:11:00,81.1,29.1,30.12,ESE,109,1.0,6.0,15,0.00,,,0.00,meteohub,2013-07-08 20:11:00,
2013-07-08 13:17:00,81.0,30.6,30.12,NE,35,6.0,6.0,16,0.00,,,0.00,meteohub,2013-07-08 20:17:00,
2013-07-08 13:22:00,80.8,31.8,30.12,SSW,209,0.0,10.0,17,0.00,,,0.00,meteohub,2013-07-08 20:22:00,
2013-07-08 13:27:00,81.0,27.3,30.11,SE,141,2.0,10.0,14,0.00,,,0.00,meteohub,2013-07-08 20:27:00,
2013-07-08 13:32:00,81.7,26.1,30.12,WSW,242,1.0,10.0,13,0.00,,,0.00,meteohub,2013-07-08 20:32:00,
2013-07-08 13:37:00,81.7,29.5,30.12,WNW,292,1.0,7.0,15,0.00,,,0.00,meteohub,2013-07-08 20:37:00,
2013-07-08 13:42:00,82.0,31.5,30.12,ENE,57,7.0,7.0,16,0.00,,,0.00,meteohub,2013-07-08 20:42:00,
2013-07-08 13:47:00,81.9,29.7,30.12,WNW,286,1.0,7.0,15,0.00,,,0.00,meteohub,2013-07-08 20:47:00,
2013-07-08 13:52:00,82.8,34.9,30.11,West,263,2.0,8.0,18,0.00,,,0.00,meteohub,2013-07-08 20:52:00,
2013-07-08 13:57:00,82.8,28.8,30.12,WSW,238,1.0,8.0,14,0.00,,,0.00,meteohub,2013-07-08 20:57:00,
2013-07-08 14:02:00,82.8,32.0,30.11,SE,141,2.0,8.0,16,0.00,,,0.00,meteohub,2013-07-08 21:02:00,
2013-07-08 14:07:00,82.9,30.6,30.11,South,182,3.0,4.0,15,0.00,,,0.00,meteohub,2013-07-08 21:07:00,
2013-07-08 14:13:00,82.4,31.6,30.11,East,90,2.0,8.0,16,0.00,,,0.00,meteohub,2013-07-08 21:13:00,
2013-07-08 14:18:00,82.6,33.4,30.11,SW,229,0.0,8.0,17,0.00,,,0.00,meteohub,2013-07-08 21:18:00,
2013-07-08 14:23:00,82.8,30.4,30.12,SW,233,2.0,8.0,15,0.00,,,0.00,meteohub,2013-07-08 21:23:00,
2013-07-08 14:31:00,82.9,28.8,30.12,WSW,248,1.0,5.0,14,0.00,,,0.00,meteohub,2013-07-08 21:31:00,
2013-07-08 14:36:00,82.8,27.0,30.12,SW,215,2.0,5.0,13,0.00,,,0.00,meteohub,2013-07-08 21:36:00,
2013-07-08 14:42:00,82.8,30.4,30.12,West,275,2.0,6.0,15,0.00,,,0.00,meteohub,2013-07-08 21:42:00,
2013-07-08 14:47:00,82.8,30.4,30.12,SE,140,1.0,6.0,15,0.00,,,0.00,meteohub,2013-07-08 21:47:00,
2013-07-08 14:52:00,83.1,32.4,30.12,ESE,110,0.0,8.0,16,0.00,,,0.00,meteohub,2013-07-08 21:52:00,
2013-07-08 14:57:00,83.5,38.1,30.12,East,86,1.0,8.0,20,0.00,,,0.00,meteohub,2013-07-08 21:57:00,
2013-07-08 15:02:00,82.6,41.0,30.12,SSW,199,1.0,8.0,23,0.00,,,0.00,meteohub,2013-07-08 22:02:00,
2013-07-08 15:08:00,82.6,36.1,30.12,SW,222,0.0,4.0,19,0.00,,,0.00,meteohub,2013-07-08 22:08:00,
2013-07-08 15:13:00,82.6,37.4,30.11,NW,325,3.0,4.0,20,0.00,,,0.00,meteohub,2013-07-08 22:13:00,
2013-07-08 15:18:00,81.3,36.5,30.12,WNW,292,0.0,5.0,20,0.00,,,0.00,meteohub,2013-07-08 22:18:00,
2013-07-08 15:24:00,81.7,35.4,30.11,SW,227,2.0,5.0,19,0.00,,,0.00,meteohub,2013-07-08 22:24:00,
2013-07-08 15:29:00,82.0,31.5,30.11,NNW,340,1.0,6.0,16,0.00,,,0.00,meteohub,2013-07-08 22:29:00,
2013-07-08 15:34:00,82.0,32.9,30.11,South,191,1.0,7.0,17,0.00,,,0.00,meteohub,2013-07-08 22:34:00,
2013-07-08 15:40:00,82.6,36.1,30.11,WNW,295,1.0,7.0,19,0.00,,,0.00,meteohub,2013-07-08 22:40:00,
2013-07-08 15:45:00,82.8,36.3,30.11,SW,218,2.0,7.0,19,0.00,,,0.00,meteohub,2013-07-08 22:45:00,
2013-07-08 15:50:00,82.9,33.6,30.11,South,182,2.0,5.0,17,0.00,,,0.00,meteohub,2013-07-08 22:50:00,
2013-07-08 15:55:00,82.9,37.8,30.11,SW,219,0.0,5.0,20,0.00,,,0.00,meteohub,2013-07-08 22:55:00,
2013-07-08 16:00:00,83.1,37.9,30.11,ESE,113,0.0,6.0,20,0.00,,,0.00,meteohub,2013-07-08 23:00:00,
2013-07-08 16:05:00,82.6,34.7,30.11,SSW,202,3.0,6.0,18,0.00,,,0.00,meteohub,2013-07-08 23:05:00,
2013-07-08 16:10:00,82.2,38.5,30.11,NNE,22,0.0,6.0,21,0.00,,,0.00,meteohub,2013-07-08 23:10:00,
2013-07-08 16:15:00,82.0,42.8,30.11,NE,42,2.0,9.0,25,0.00,,,0.00,meteohub,2013-07-08 23:15:00,
2013-07-08 16:20:00,82.2,37.2,30.11,NW,323,2.0,9.0,20,0.00,,,0.00,meteohub,2013-07-08 23:20:00,
2013-07-08 16:25:00,82.0,37.0,30.11,SE,140,2.0,9.0,20,0.00,,,0.00,meteohub,2013-07-08 23:25:00,
2013-07-08 16:30:00,82.0,38.3,30.11,WSW,244,0.0,8.0,21,0.00,,,0.00,meteohub,2013-07-08 23:30:00,
2013-07-08 16:35:00,81.9,41.5,30.11,NW,326,1.0,8.0,24,0.00,,,0.00,meteohub,2013-07-08 23:35:00,
2013-07-08 16:41:00,82.0,37.0,30.11,SSW,206,1.0,8.0,20,0.00,,,0.00,meteohub,2013-07-08 23:41:00,
2013-07-08 16:46:00,82.4,37.2,30.12,ESE,102,2.0,8.0,20,0.00,,,0.00,meteohub,2013-07-08 23:46:00,
2013-07-08 16:51:00,82.4,40.8,30.11,SSE,165,0.0,8.0,23,0.00,,,0.00,meteohub,2013-07-08 23:51:00,
2013-07-08 16:57:00,82.6,38.7,30.11,East,96,2.0,8.0,21,0.00,,,0.00,meteohub,2013-07-08 23:57:00,
2013-07-08 17:02:00,82.4,37.2,30.11,East,97,1.0,4.0,20,0.00,,,0.00,meteohub,2013-07-09 00:02:00,
2013-07-08 17:09:00,82.0,39.4,30.11,SSW,211,0.0,7.0,22,0.00,,,0.00,meteohub,2013-07-09 00:09:00,
2013-07-08 17:14:00,82.0,39.4,30.11,SSW,200,2.0,7.0,22,0.00,,,0.00,meteohub,2013-07-09 00:14:00,
2013-07-08 17:19:00,81.3,41.0,30.11,WSW,244,0.0,7.0,24,0.00,,,0.00,meteohub,2013-07-09 00:19:00,
2013-07-08 17:25:00,81.3,38.8,30.11,WSW,248,2.0,6.0,22,0.00,,,0.00,meteohub,2013-07-09 00:25:00,
2013-07-08 17:30:00,81.1,41.0,30.11,SW,214,1.0,6.0,24,0.00,,,0.00,meteohub,2013-07-09 00:30:00,
2013-07-08 17:35:00,81.7,41.4,30.11,ESE,104,1.0,6.0,24,0.00,,,0.00,meteohub,2013-07-09 00:35:00,
2013-07-08 17:40:00,81.9,41.5,30.10,SSE,159,0.0,8.0,24,0.00,,,0.00,meteohub,2013-07-09 00:40:00,
2013-07-08 17:46:00,81.7,40.3,30.11,SSE,167,1.0,9.0,23,0.00,,,0.00,meteohub,2013-07-09 00:46:00,
2013-07-08 17:51:00,81.3,39.9,30.11,WNW,288,1.0,9.0,23,0.00,,,0.00,meteohub,2013-07-09 00:51:00,
2013-07-08 17:57:00,81.1,39.7,30.11,ESE,104,1.0,9.0,23,0.00,,,0.00,meteohub,2013-07-09 00:57:00,
2013-07-08 18:02:00,80.8,38.5,30.10,ESE,118,4.0,6.0,22,0.00,,,0.00,meteohub,2013-07-09 01:02:00,
2013-07-08 18:07:00,80.4,38.1,30.11,WNW,283,0.0,7.0,22,0.00,,,0.00,meteohub,2013-07-09 01:07:00,
2013-07-08 18:12:00,80.1,38.8,30.11,SSW,207,1.0,7.0,23,0.00,,,0.00,meteohub,2013-07-09 01:12:00,
2013-07-08 18:17:00,79.9,37.6,30.11,WSW,254,2.0,7.0,22,0.00,,,0.00,meteohub,2013-07-09 01:17:00,
2013-07-08 18:22:00,80.1,38.8,30.12,SW,217,0.0,6.0,23,0.00,,,0.00,meteohub,2013-07-09 01:22:00,
2013-07-08 18:27:00,79.9,37.6,30.11,SW,219,1.0,4.0,22,0.00,,,0.00,meteohub,2013-07-09 01:27:00,
2013-07-08 18:32:00,79.5,37.4,30.12,WNW,303,0.0,5.0,22,0.00,,,0.00,meteohub,2013-07-09 01:32:00,
2013-07-08 18:37:00,79.0,37.9,30.12,SE,135,1.0,5.0,23,0.00,,,0.00,meteohub,2013-07-09 01:37:00,
2013-07-08 18:43:00,79.3,37.2,30.12,SSW,198,0.0,7.0,22,0.00,,,0.00,meteohub,2013-07-09 01:43:00,
2013-07-08 18:48:00,79.3,37.2,30.12,East,100,1.0,7.0,22,0.00,,,0.00,meteohub,2013-07-09 01:48:00,
2013-07-08 18:55:00,78.1,36.1,30.12,WSW,241,1.0,8.0,22,0.00,,,0.00,meteohub,2013-07-09 01:55:00,
2013-07-08 19:00:00,77.5,36.9,30.12,SSE,153,0.0,8.0,23,0.00,,,0.00,meteohub,2013-07-09 02:00:00,
2013-07-08 19:07:00,76.8,36.1,30.13,SE,144,1.0,3.0,23,0.00,,,0.00,meteohub,2013-07-09 02:07:00,
2013-07-08 19:13:00,76.1,35.6,30.13,NNE,23,2.0,3.0,23,0.00,,,0.00,meteohub,2013-07-09 02:13:00,
2013-07-08 19:18:00,75.6,36.3,30.13,SSW,209,1.0,3.0,24,0.00,,,0.00,meteohub,2013-07-09 02:18:00,
2013-07-08 19:24:00,75.2,34.9,30.13,East,90,2.0,3.0,23,0.00,,,0.00,meteohub,2013-07-09 02:24:00,
2013-07-08 19:29:00,74.8,36.7,30.14,NNW,330,0.0,2.0,25,0.00,,,0.00,meteohub,2013-07-09 02:29:00,
2013-07-08 19:35:00,74.3,35.2,30.14,East,82,1.0,5.0,24,0.00,,,0.00,meteohub,2013-07-09 02:35:00,
2013-07-08 19:40:00,73.8,35.8,30.14,South,175,0.0,5.0,25,0.00,,,0.00,meteohub,2013-07-09 02:40:00,
2013-07-08 19:47:00,73.2,38.1,30.14,South,171,1.0,3.0,28,0.00,,,0.00,meteohub,2013-07-09 02:47:00,
2013-07-08 19:52:00,72.9,34.0,30.14,SW,223,0.0,3.0,24,0.00,,,0.00,meteohub,2013-07-09 02:52:00,
2013-07-08 19:57:00,72.7,34.9,30.14,SSW,202,0.0,3.0,25,0.00,,,0.00,meteohub,2013-07-09 02:57:00,
2013-07-08 20:02:00,72.3,34.5,30.14,SW,223,0.0,3.0,25,0.00,,,0.00,meteohub,2013-07-09 03:02:00,
2013-07-08 20:07:00,72.0,34.2,30.14,South,171,0.0,3.0,25,0.00,,,0.00,meteohub,2013-07-09 03:07:00,
2013-07-08 20:12:00,71.4,34.7,30.14,SE,135,0.0,1.0,26,0.00,,,0.00,meteohub,2013-07-09 03:12:00,
2013-07-08 20:17:00,71.1,35.4,30.14,South,172,0.0,1.0,27,0.00,,,0.00,meteohub,2013-07-09 03:17:00,
2013-07-08 20:22:00,70.3,33.8,30.15,South,172,0.0,1.0,26,0.00,,,0.00,meteohub,2013-07-09 03:22:00,
2013-07-08 20:27:00,70.0,34.5,30.14,South,173,0.0,1.0,27,0.00,,,0.00,meteohub,2013-07-09 03:27:00,
2013-07-08 20:32:00,69.4,34.0,30.15,South,173,0.0,0.0,27,0.00,,,0.00,meteohub,2013-07-09 03:32:00,
2013-07-08 20:38:00,68.9,33.6,30.15,South,172,0.0,0.0,27,0.00,,,0.00,meteohub,2013-07-09 03:38:00,
2013-07-08 20:43:00,68.4,34.0,30.15,South,172,0.0,0.0,28,0.00,,,0.00,meteohub,2013-07-09 03:43:00,
2013-07-08 20:50:00,67.8,34.3,30.15,South,186,0.0,0.0,29,0.00,,,0.00,meteohub,2013-07-09 03:50:00,
2013-07-08 20:55:00,67.5,34.2,30.16,South,186,0.0,0.0,29,0.00,,,0.00,meteohub,2013-07-09 03:55:00,
2013-07-08 21:01:00,67.3,34.0,30.16,SSE,157,0.0,0.0,29,0.00,,,0.00,meteohub,2013-07-09 04:01:00,
2013-07-08 21:02:00,67.3,34.0,30.16,SSE,156,0.0,0.0,29,0.00,,,0.00,meteohub,2013-07-09 04:02:00,
2013-07-08 21:03:00,67.3,34.0,30.16,SSE,157,0.0,0.0,29,0.00,,,0.00,meteohub,2013-07-09 04:03:00,
2013-07-08 21:08:00,66.9,33.6,30.16,SSE,157,0.0,0.0,29,0.00,,,0.00,meteohub,2013-07-09 04:08:00,
2013-07-08 21:13:00,66.6,34.2,30.16,SSE,156,0.0,0.0,30,0.00,,,0.00,meteohub,2013-07-09 04:13:00,
2013-07-08 21:18:00,66.0,34.5,30.17,SSE,156,0.0,0.0,31,0.00,,,0.00,meteohub,2013-07-09 04:18:00,
2013-07-08 21:23:00,65.5,34.0,30.17,SSE,156,0.0,0.0,31,0.00,,,0.00,meteohub,2013-07-09 04:23:00,
2013-07-08 21:28:00,64.9,34.3,30.17,SSE,157,0.0,0.0,32,0.00,,,0.00,meteohub,2013-07-09 04:28:00,
2013-07-08 21:33:00,64.8,35.1,30.17,SSE,156,0.0,0.0,33,0.00,,,0.00,meteohub,2013-07-09 04:33:00,
2013-07-08 21:38:00,64.6,34.0,30.17,SSE,156,0.0,0.0,32,0.00,,,0.00,meteohub,2013-07-09 04:38:00,
2013-07-08 21:44:00,64.2,33.8,30.18,SSE,156,0.0,0.0,32,0.00,,,0.00,meteohub,2013-07-09 04:44:00,
2013-07-08 21:49:00,64.0,33.6,30.18,SSE,156,0.0,0.0,32,0.00,,,0.00,meteohub,2013-07-09 04:49:00,
2013-07-08 21:54:00,63.9,34.9,30.18,SSE,157,0.0,0.0,34,0.00,,,0.00,meteohub,2013-07-09 04:54:00,
2013-07-08 21:59:00,63.7,34.0,30.18,SSE,157,0.0,0.0,33,0.00,,,0.00,meteohub,2013-07-09 04:59:00,
2013-07-08 22:04:00,63.3,34.5,30.18,SSE,156,0.0,0.0,34,0.00,,,0.00,meteohub,2013-07-09 05:04:00,
2013-07-08 22:09:00,63.3,33.8,30.18,SSE,156,0.0,0.0,33,0.00,,,0.00,meteohub,2013-07-09 05:09:00,
2013-07-08 22:14:00,63.3,32.2,30.18,SSE,156,0.0,0.0,31,0.00,,,0.00,meteohub,2013-07-09 05:14:00,
2013-07-08 22:19:00,63.1,32.7,30.19,SSE,156,0.0,0.0,32,0.00,,,0.00,meteohub,2013-07-09 05:19:00,
2013-07-08 22:24:00,63.1,32.7,30.18,SSE,157,0.0,0.0,32,0.00,,,0.00,meteohub,2013-07-09 05:24:00,
2013-07-08 22:29:00,63.0,33.4,30.19,SSE,156,0.0,0.0,33,0.00,,,0.00,meteohub,2013-07-09 05:29:00,
2013-07-08 22:34:00,63.0,34.2,30.19,SSE,153,0.0,0.0,34,0.00,,,0.00,meteohub,2013-07-09 05:34:00,
2013-07-08 22:39:00,63.0,34.2,30.19,SSE,153,0.0,0.0,34,0.00,,,0.00,meteohub,2013-07-09 05:39:00,
2013-07-08 22:44:00,62.6,33.8,30.19,SSE,154,0.0,0.0,34,0.00,,,0.00,meteohub,2013-07-09 05:44:00,
2013-07-08 22:49:00,62.2,33.4,30.19,SSE,154,0.0,0.0,34,0.00,,,0.00,meteohub,2013-07-09 05:49:00,
2013-07-08 22:54:00,62.1,33.4,30.19,SSE,153,0.0,0.0,34,0.00,,,0.00,meteohub,2013-07-09 05:54:00,
2013-07-08 22:59:00,61.7,33.1,30.19,SSE,153,0.0,0.0,34,0.00,,,0.00,meteohub,2013-07-09 05:59:00,
2013-07-08 23:04:00,61.3,33.4,30.19,SSE,153,0.0,0.0,35,0.00,,,0.00,meteohub,2013-07-09 06:04:00,
2013-07-08 23:09:00,61.0,33.1,30.20,SSE,154,0.0,0.0,35,0.00,,,0.00,meteohub,2013-07-09 06:09:00,
2013-07-08 23:15:00,60.8,33.6,30.20,SSE,154,0.0,0.0,36,0.00,,,0.00,meteohub,2013-07-09 06:15:00,
2013-07-08 23:20:00,60.4,33.4,30.20,SSE,153,0.0,0.0,36,0.00,,,0.00,meteohub,2013-07-09 06:20:00,
2013-07-08 23:25:00,60.1,33.8,30.20,SSE,153,0.0,0.0,37,0.00,,,0.00,meteohub,2013-07-09 06:25:00,
2013-07-08 23:30:00,59.7,33.4,30.20,ESE,121,0.0,0.0,37,0.00,,,0.00,meteohub,2013-07-09 06:30:00,
2013-07-08 23:35:00,59.5,34.0,30.20,ESE,113,0.0,1.0,38,0.00,,,0.00,meteohub,2013-07-09 06:35:00,
2013-07-08 23:40:00,59.2,33.6,30.20,ESE,116,0.0,1.0,38,0.00,,,0.00,meteohub,2013-07-09 06:40:00,
2013-07-08 23:45:00,59.0,34.2,30.20,ESE,116,0.0,1.0,39,0.00,,,0.00,meteohub,2013-07-09 06:45:00,
2013-07-08 23:50:00,58.8,34.0,30.21,ESE,114,0.0,1.0,39,0.00,,,0.00,meteohub,2013-07-09 06:50:00,
2013-07-08 23:55:00,58.6,33.8,30.21,ESE,116,0.0,1.0,39,0.00,,,0.00,meteohub,2013-07-09 06:55:00,